Regional Weather Roundup
Issued by NWS

Home | Current Version | Previous Version | Graphics & Text | Print | Product List | Glossary On
Versions: 1 2 3 4 5 6 7 8 9 10 11 12 13 14 15 16 17 18 19 20 21 22 23 24 25 26 27 28 29 30 31 32 33 34 35 36 37 38 39 40 41 42 43 44 45 46 47 48 49 50
000
ASUS43 KDTX 220401
RWRMI
MICHIGAN HOURLY REGIONAL WEATHER ROUNDUP
NATIONAL WEATHER SERVICE DETROIT/PONTIAC MI
1100 PM EST SAT JAN 21 2017

NOTE: "FAIR" INDICATES FEW OR NO CLOUDS BELOW 12,000 FEET WITH NO
SIGNIFICANT WEATHER AND/OR OBSTRUCTION TO VISIBILITY.

MIZ047>049-052>055-059>063-066>070-074>076-081>083-220500-
SOUTHEAST LOWER MICHIGAN

CITY           SKY/WX    TMP DP  RH WIND       PRES   REMARKS
ADRIAN         FOG       44  44 100 CALM      29.63S VSB 1/2
ALMA           MOCLDY    44  44  99 SW8       29.59S FOG
ANN ARBOR      FOG       37  37 100 CALM      29.62S VSB 1/4
BAD AXE        FOG       43  43 100 S6        29.61F VSB 1/4
CARO           FOG       44  44 100 CALM      29.59S VSB 1/4
DETROIT CITY   CLEAR     45  45 100 CALM      29.63S
DETROIT        MOCLDY    42  42 100 CALM      29.64R FOG
FLINT          CLEAR     49  47  93 S7        29.61S
GROSSE ILE     CLEAR     39  38  98 CALM      29.62S FOG
HILLSDALE      PTCLDY    46  46 100 S6        29.62R FOG
HOWELL         CLEAR     48  46  93 S5        29.61S FOG

CITY           SKY/WX    TMP DP  RH WIND       PRES   REMARKS
JACKSON        CLEAR     49  47  93 S7        29.61R FOG
LAMBERTVILLE   PTCLDY    50  48  92 CALM      29.63R FOG
LANSING        PTCLDY    47  45  93 S7        29.60S FOG
LAPEER         FAIR      46  45  99 S6        29.61F FOG
MASON          FOG       46  46  99 S3        29.61R VSB 3/4
MONROE         FOG       41  41 100 CALM      29.62R VSB<1/4
MT. CLEMENS    MIX PCPN  37  37 100 CALM      29.61S VSB 1/2
PONTIAC        FOG       43  41  93 CALM      29.61S VSB 1/8
PORT HOPE        N/A     41  41 100 S7        29.60S
PORT HURON     FOG       43  43 100 CALM      29.64R VSB 1/4
TRI CITIES     FOG       42  42 100 S6        29.58F VSB 1/4
MIDLAND        FOG       39  38  97 CALM      29.58S VSB 1/4
TROY           FOG       39  38  94 CALM      29.65R VSB 3/4
SAGINAW HB     FOG       41  37  87 S5        29.58F VSB 1/4
$$
MIZ043>046-050>051-056>058-064>065-071>073-077>080-220500-
SOUTHWEST LOWER MICHIGAN

CITY           SKY/WX    TMP DP  RH WIND       PRES   REMARKS
BATTLE CREEK   PTCLDY    47  47 100 S7        29.60R FOG
BENTON HARBOR  FOG       43  41  93 CALM      29.59R VSB 1/4
BIG RAPIDS     FOG       38  37  98 CALM      29.57S VSB<1/4
COLDWATER      PTCLDY    49  49 100 S6        29.61R FOG
FREMONT        FOG       37  37 100 CALM      29.57R VSB 1/4
HOLLAND        CLEAR     42  41  96 S5        29.59R
GRAND RAPIDS   PTCLDY    41  40  96 S6        29.59R FOG
IONIA          FOG       45  45  99 S6        29.58S VSB 3/4
KALAMAZOO      FOG       45  44  97 CALM      29.60R VSB 1/4
LUDINGTON      FOG       40  40 100 CALM      29.57R VSB 3/4
MARSHALL       CLEAR     49  48  98 S3        29.60R
MOUNT PLEASANT FOG       41  41  99 CALM      29.58R VSB 1/4
MUSKEGON       PTCLDY    43  40  89 SW3       29.58R
SOUTH HAVEN    CLEAR     47  43  86 CALM      29.59R
$$
MIZ016>042-220500-
NORTHERN LOWER MICHIGAN

CITY           SKY/WX    TMP DP  RH WIND       PRES   REMARKS
ALPENA         FOG       36  35  96 SE7       29.61F VSB 1/2 WCI  30
BEAVER ISLAND  CLOUDY    37  37 100 E8        29.55F FOG     WCI  30
BELLAIRE       FOG       37  37  99 CALM      29.57R VSB 1
CADILLAC       FOG       39  38  97 CALM      29.55S VSB 1/4
CHARLEVOIX     CLOUDY    40  40 100 SE6       29.58R FOG
FRANKFORT      CLOUDY    43  43 100 CALM      29.55S FOG
GAYLORD        LGT RAIN  39  36  89 CALM      29.57R VSB 1/4
GRAYLING       FOG       37  37  99 N3        29.57S VSB 1/4
HARBOR SPRINGS CLOUDY    37  37 100 E9        29.57S FOG     WCI  30
HOUGHTON LAKE  LGT RAIN  42  42 100 S5        29.57R VSB 1/4
MANISTEE       CLOUDY    41  41 100 CALM      29.56S FOG
OSCODA         FOG       39  39  97 E3        29.60F VSB 1/4
PELLSTON       FOG       36  35  96 SE5       29.59S VSB 1   WCI  32
ROGERS CITY    FOG       37  36  96 E5        29.61F VSB 1/2 WCI  33
TRAVERSE CITY  CLOUDY    44  42  93 CALM      29.55R
$$
MIZ007>008-015-220500-
EASTERN UPPER MICHIGAN

CITY           SKY/WX    TMP DP  RH WIND       PRES   REMARKS
KINROSS        LGT RAIN  34  34 100 E10       29.61S VSB 1/2 WCI  26
MACKINAC ISLAN FOG       35  35 100 E14G21    29.59F VSB 1/2 WCI  26
NEWBERRY       CLOUDY    35  34  96 SE13      29.56S FOG     WCI  27
S. S. MARIE    FOG       37  35  92 SE12G17   29.62R VSB 3/4 WCI  29
MUNISING         N/A     37  37 100 S9        29.51F WCI  30
$$
MIZ004>006-011>014-085-220500-
CENTRAL UPPER MICHIGAN

CITY           SKY/WX    TMP DP  RH WIND       PRES   REMARKS
MANISTIQUE     FOG       36  35  97 E10       29.54S VSB 1/2 WCI  28
ESCANABA       FOG       35  35 100 NE3       29.53S VSB 1/4
SAWYER-GWINN   LGT RAIN  34  34  99 S5        29.51S VSB 1/2 WCI  30
$$
MIZ001>003-009>011-084-220500-
WESTERN UPPER MICHIGAN

CITY           SKY/WX    TMP DP  RH WIND       PRES   REMARKS
IRON MOUNTAIN  FOG       34  32  92 CALM      29.50R VSB 1/4
HOUGHTON       LGT RAIN  34  33  96 E3        29.52R VSB 1/2
COPPER HARBOR    N/A     37  36  96 VRB5      29.53F WCI  33
IRONWOOD       CLOUDY    35  34  96 CALM      29.51R FOG
$$

ABBREVIATIONS USED IN REMARKS
   TC - TEMPERATURE IN CELSIUS
  WCI - WIND CHILL INDEX
   HX - HEAT INDEX
  VSB - VISIBILITY




USA.gov is the U.S. government's official web portal to all federal, state and local government web resources and services.